This demonstration page uses our WeatherBlox Daily Observations layout. Learn more.

Left ArrowRight Arrow

31.31129, -92.44514

Hourly Observations for December 28, 2019

Temp ( °F °C ) Dew Point ( °F °C ) Humidity (%) Winds ( mph kmh ) Pressure ( in mb ) Visibility ( mi km ) Precip ( " mm )
12:44 am 00:44 Cloudy 65 18.3 62 16.7 90 90 ESE 7 11 29.98 1015 10 16 0.00 0.00
12:53 am 00:53 Cloudy 65 18.3 63 17.2 93 93 ESE 7 11 29.99 1016 10 16 0.00 0.00
1:53 am 01:53 Cloudy with Mist and Fog 64 17.8 63 17.2 96 96 ESE 9 15 29.97 1015 6 10 0.00 0.00
2:53 am 02:53 Cloudy with Mist and Fog 64 17.8 63 17.2 96 96 E 7 11 29.95 1014 6 10 0.00 0.00
3:53 am 03:53 Cloudy with Mist and Fog 65 18.3 64 17.8 97 97 ESE 8 13 29.95 1014 4 6 0.00 0.00
4:11 am 04:11 Cloudy with Mist and Fog 65 18.3 64 17.8 97 97 ESE 8 13 29.94 1014 2 3 0.00 0.00
4:48 am 04:48 Mostly Cloudy with Mist and Fog 64 18 64 18 100 100 ESE 8 13 29.93 1014 1 1 0.00 0.00
4:53 am 04:53 Mostly Cloudy with Mist and Fog 64 17.8 64 17.8 100 100 ESE 9 15 29.94 1014 1 1 0.00 0.00
5:23 am 05:23 Mostly Cloudy with Mist and Fog 65 18.3 64 17.8 97 97 ESE 8 13 29.92 1013 1 2 0.00 0.00
5:53 am 05:53 Cloudy with Mist and Fog 65 18.3 64 17.8 97 97 E 9 15 29.92 1013 2 2 0.00 0.00
6:08 am 06:08 Cloudy with Mist and Fog 65 18.3 64 17.8 97 97 ESE 10 17 29.91 1013 3 4 0.00 0.00
6:53 am 06:53 Cloudy with Mist and Fog 65 18.3 65 18.3 100 100 SE 9 15 29.92 1013 3 4 0.00 0.00
7:28 am 07:28 Cloudy with Mist and Fog 65 18.3 65 18.3 100 100 ESE 10 17 29.91 1013 2 3 0.00 0.00
7:53 am 07:53 Cloudy with Mist and Fog 66 18.9 65 18.3 96 96 SE 9 15 29.93 1014 2 2 0.00 0.00
8:34 am 08:34 Cloudy with Mist and Fog 66 18.9 65 18.3 96 96 SE 13 20 29.93 1013 3 5 0.00 0.00
8:51 am 08:51 Cloudy with Mist and Fog 66 19 64 18 94 94 SE 12 19 29.93 1013 2 3 0.00 0.00
8:53 am 08:53 Cloudy with Mist and Fog 66 18.9 65 18.3 96 96 SE 10 17 29.94 1014 2 3 0.00 0.00
9:25 am 09:25 Cloudy with Mist and Fog 67 19.4 66 18.9 97 97 SE 13 20 29.93 1013 3 5 0.00 0.00
9:40 am 09:40 Cloudy with Mist and Fog 67 19.4 66 18.9 97 97 SE 13 20 29.93 1013 5 8 0.00 0.00
9:53 am 09:53 Cloudy with Mist and Fog 67 19.4 66 18.9 97 97 SE 10 17 29.94 1014 6 10 0.00 0.00
10:53 am 10:53 Cloudy 68 20 67 19.4 96 96 SE 10 17 29.92 1013 7 11 0.00 0.00
11:28 am 11:28 Cloudy 69 20.6 66 18.9 90 90 SSE 13 20 29.88 1012 10 16 0.00 0.00
11:43 am 11:43 Cloudy 69 20.6 66 18.9 90 90 SSE 13 20 29.88 1012 10 16 0.00 0.00
11:53 am 11:53 Cloudy 70 21.1 66 18.9 87 87 SSE 9 15 29.88 1012 10 16 0.00 0.00
11:58 am 11:58 Cloudy 70 21.1 67 19.4 90 90 SSE 12 19 29.87 1011 10 16 0.00 0.00
12:26 pm 12:26 Cloudy 70 21.1 67 19.4 90 90 SSE 12 19 29.85 1011 10 16 0.00 0.00
12:48 pm 12:48 Cloudy 72 22 66 19 83 83 SE 12 19 29.83 1010 10 16 0.00 0.00
12:53 pm 12:53 Cloudy 71 21.7 66 18.9 84 84 SE 13 20 29.83 1010 10 16 0.00 0.00
1:53 pm 13:53 Cloudy 71 21.7 66 18.9 84 84 SSE 6 9 29.82 1010 10 16 0.00 0.00
2:17 pm 14:17 Cloudy 72 22.2 66 18.9 82 82 SSE 8 13 29.81 1009 10 16 0.00 0.00
2:53 pm 14:53 Cloudy 72 22.2 66 18.9 82 82 SE 8 13 29.81 1010 10 16 0.00 0.00
3:27 pm 15:27 Cloudy 72 22.2 67 19.4 84 84 SE 9 15 29.80 1009 10 16 0.00 0.00
3:35 pm 15:35 Mostly Cloudy 72 22.2 67 19.4 84 84 ESE 9 15 29.80 1009 10 16 0.00 0.00
3:53 pm 15:53 Mostly Cloudy 71 21.7 66 18.9 84 84 SE 8 13 29.80 1009 10 16 0.00 0.00
4:53 pm 16:53 Partly Cloudy 72 22.2 66 18.9 82 82 SE 10 17 29.80 1009 10 16 0.00 0.00
5:35 pm 17:35 Cloudy with Light Rain 71 21.7 67 19.4 87 87 SSE 10 17 29.79 1009 10 16 0.00 0.00
5:53 pm 17:53 Cloudy 70 21.1 66 18.9 87 87 SSE 8 13 29.79 1009 10 16 0.00 0.00
6:28 pm 18:28 Cloudy 69 20.6 67 19.4 93 93 SE 8 13 29.79 1009 10 16 0.00 0.00
6:53 pm 18:53 Cloudy 69 20.6 67 19.4 93 93 SE 9 15 29.80 1009 10 16 0.00 0.00
7:15 pm 19:15 Mostly Cloudy 69 20.6 67 19.4 93 93 SSE 10 17 29.79 1009 10 16 0.00 0.00
7:28 pm 19:28 Partly Cloudy 69 20.6 67 19.4 93 93 SSE 10 17 29.79 1009 10 16 0.00 0.00
7:41 pm 19:41 Mostly Cloudy 69 20.6 67 19.4 93 93 SSE 10 17 29.80 1009 10 16 0.00 0.00
7:53 pm 19:53 Mostly Cloudy 70 21.1 67 19.4 90 90 SSE 12 19 29.80 1009 10 16 0.00 0.00
8:53 pm 20:53 Cloudy 70 21.1 66 18.9 87 87 S 8 13 29.83 1010 10 16 0.00 0.00
9:53 pm 21:53 Cloudy 69 20.6 67 19.4 93 93 S 8 13 29.83 1010 10 16 0.02 0.51
10:53 pm 22:53 Cloudy 68 20 66 18.9 93 93 S 5 7 29.83 1010 10 16 0.00 0.00
11:18 pm 23:18 Cloudy with Light Rain 69 20.6 67 19.4 93 93 SSW 5 7 29.82 1010 10 16 0.00 0.00
11:53 pm 23:53 Cloudy with Light Rain 68 20 66 18.9 93 93 SSE 6 9 29.82 1010 10 16 0.01 0.25

Powered by AerisWeather